2015-12-12, 07:38:04,VALID,918.155,VALID,0,VALID,103.366,VALID,79.9362,VALID,19.9368,VALID,107,VALID,0,
2015-12-12, 07:42:04,VALID,918.183,VALID,0,VALID,103.45,VALID,106.259,VALID,19.9953,VALID,107,VALID,0,
2015-12-12, 07:43:04,VALID,918.165,VALID,0,VALID,103.495,VALID,120.012,VALID,20.0358,VALID,107,VALID,0,
2015-12-12, 07:44:04,VALID,918.194,VALID,0,VALID,103.534,VALID,129.896,VALID,20.0553,VALID,107,VALID,0,
2015-12-12, 07:45:04,VALID,918.195,VALID,0,VALID,103.495,VALID,142.897,VALID,20.0538,VALID,107,VALID,0,
2015-12-12, 07:46:04,VALID,918.205,VALID,0,VALID,103.503,VALID,158.691,VALID,20.1334,VALID,49,VALID,0,
2015-12-12, 07:47:04,VALID,918.178,VALID,0,VALID,103.587,VALID,202.097,VALID,20.0944,VALID,48,VALID,0,
2015-12-12, 07:48:04,VALID,918.2,VALID,0,VALID,103.595,VALID,172.98,VALID,20.1724,VALID,48,VALID,0,
2015-12-12, 07:49:04,VALID,918.221,VALID,0,VALID,103.663,VALID,168.79,VALID,20.1903,VALID,48,VALID,0,
2015-12-12, 07:50:04,VALID,918.231,VALID,0,VALID,103.694,VALID,172.443,VALID,20.2489,VALID,48,VALID,0,
2015-12-12, 07:51:04,VALID,918.216,VALID,0,VALID,103.762,VALID,183.617,VALID,20.3089,VALID,48,VALID,0,
2015-12-12, 07:52:04,VALID,918.217,VALID,0,VALID,103.77,VALID,180.286,VALID,20.3659,VALID,48,VALID,0,
2015-12-12, 07:53:04,VALID,918.224,VALID,0,VALID,103.846,VALID,185.336,VALID,20.4244,VALID,53,VALID,0,
2015-12-12, 07:54:04,VALID,918.202,VALID,0,VALID,103.922,VALID,189.526,VALID,20.4634,VALID,53,VALID,0,
2015-12-12, 07:55:04,VALID,918.182,VALID,0,VALID,104,VALID,190.815,VALID,20.5024,VALID,52,VALID,0,
2015-12-12, 07:56:04,VALID,918.201,VALID,0,VALID,104,VALID,197.047,VALID,20.543,VALID,53,VALID,0,
2015-12-12, 07:57:04,VALID,918.226,VALID,0,VALID,104,VALID,199.841,VALID,20.5999,VALID,49,VALID,0,
2015-12-12, 07:58:04,VALID,918.258,VALID,0,VALID,104,VALID,216.924,VALID,20.6764,VALID,48,VALID,0,
2015-12-12, 07:59:04,VALID,918.308,VALID,0,VALID,104,VALID,236.048,VALID,20.717,VALID,48,VALID,0,
2015-12-12, 08:00:04,VALID,918.283,VALID,0,VALID,104,VALID,239.701,VALID,20.795,VALID,48,VALID,0,
2015-12-12, 08:01:04,VALID,918.341,VALID,0,VALID,104,VALID,254.958,VALID,20.8356,VALID,48,VALID,0,
2015-12-12, 08:02:04,VALID,918.371,VALID,0,VALID,104,VALID,235.833,VALID,20.8941,VALID,48,VALID,0,
2015-12-12, 08:03:04,VALID,918.384,VALID,0,VALID,104,VALID,218.858,VALID,20.9706,VALID,48,VALID,0,
2015-12-12, 08:04:04,VALID,918.431,VALID,0,VALID,103.877,VALID,211.229,VALID,21.1071,VALID,48,VALID,0,
2015-12-12, 08:05:04,VALID,918.46,VALID,0,VALID,103.137,VALID,205.535,VALID,21.2453,VALID,47,VALID,0,
2015-12-12, 08:06:04,VALID,918.491,VALID,0,VALID,102.771,VALID,203.171,VALID,21.4209,VALID,48,VALID,0,
2015-12-12, 08:07:04,VALID,918.514,VALID,0,VALID,102.001,VALID,202.097,VALID,21.4778,VALID,48,VALID,0,
2015-12-12, 08:08:04,VALID,918.55,VALID,0,VALID,100.98,VALID,199.948,VALID,21.4794,VALID,48,VALID,0,
2015-12-12, 08:09:04,VALID,918.533,VALID,0,VALID,100.858,VALID,195.973,VALID,21.4973,VALID,48,VALID,0,
2015-12-12, 08:10:04,VALID,918.559,VALID,0,VALID,100.332,VALID,193.931,VALID,21.4973,VALID,48,VALID,0,
2015-12-12, 08:11:04,VALID,918.575,VALID,0,VALID,99.9049,VALID,191.03,VALID,21.4778,VALID,48,VALID,0,
2015-12-12, 08:12:04,VALID,918.567,VALID,0,VALID,99.2874,VALID,188.344,VALID,21.3786,VALID,48,VALID,0,
2015-12-12, 08:13:04,VALID,918.576,VALID,0,VALID,100.05,VALID,189.526,VALID,21.3998,VALID,48,VALID,0,
2015-12-12, 08:14:04,VALID,918.587,VALID,0,VALID,101.056,VALID,190.601,VALID,21.4388,VALID,48,VALID,0,
2015-12-12, 08:15:04,VALID,918.581,VALID,0,VALID,101.201,VALID,185.981,VALID,21.3998,VALID,48,VALID,0,
2015-12-12, 08:16:04,VALID,918.603,VALID,0,VALID,101.849,VALID,178.782,VALID,21.3803,VALID,48,VALID,0,
2015-12-12, 08:17:04,VALID,918.61,VALID,0,VALID,102.131,VALID,169.435,VALID,21.3803,VALID,48,VALID,0,
2015-12-12, 08:18:04,VALID,918.625,VALID,0,VALID,101.475,VALID,158.798,VALID,21.3608,VALID,48,VALID,0,
2015-12-12, 08:19:04,VALID,918.634,VALID,0,VALID,100.393,VALID,146.55,VALID,21.3412,VALID,48,VALID,0,
2015-12-12, 08:20:04,VALID,918.614,VALID,0,VALID,100.698,VALID,135.376,VALID,21.3786,VALID,48,VALID,0,
2015-12-12, 08:21:04,VALID,918.65,VALID,0,VALID,100.789,VALID,130.971,VALID,21.3786,VALID,48,VALID,0,
2015-12-12, 08:22:04,VALID,918.665,VALID,0,VALID,100.012,VALID,132.367,VALID,21.3006,VALID,48,VALID,0,
2015-12-12, 08:23:04,VALID,918.641,VALID,0,VALID,100.233,VALID,133.12,VALID,21.3591,VALID,48,VALID,0,
2015-12-12, 08:24:04,VALID,918.645,VALID,0,VALID,99.7448,VALID,133.012,VALID,21.3396,VALID,48,VALID,0,
2015-12-12, 08:25:04,VALID,918.647,VALID,0,VALID,99.8058,VALID,135.591,VALID,21.3006,VALID,48,VALID,0,
2015-12-12, 08:26:04,VALID,918.711,VALID,0,VALID,99.821,VALID,140.211,VALID,21.2811,VALID,48,VALID,0,
2015-12-12, 08:27:04,VALID,918.682,VALID,0,VALID,99.9354,VALID,147.194,VALID,21.2421,VALID,48,VALID,0,
2015-12-12, 08:28:04,VALID,918.703,VALID,0,VALID,100.583,VALID,155.36,VALID,21.3006,VALID,48,VALID,0,
2015-12-12, 08:29:04,VALID,918.725,VALID,0,VALID,100.736,VALID,162.129,VALID,21.3396,VALID,48,VALID,0,
2015-12-12, 08:30:04,VALID,918.754,VALID,0,VALID,100.843,VALID,163.525,VALID,21.3786,VALID,48,VALID,0,
2015-12-12, 08:31:04,VALID,918.766,VALID,0,VALID,101.094,VALID,161.699,VALID,21.4567,VALID,48,VALID,0,
2015-12-12, 08:32:04,VALID,918.78,VALID,0,VALID,101.048,VALID,157.724,VALID,21.5347,VALID,48,VALID,0,
2015-12-12, 08:33:04,VALID,918.792,VALID,0,VALID,100.286,VALID,150.632,VALID,21.5542,VALID,48,VALID,0,
2015-12-12, 08:34:04,VALID,918.762,VALID,0,VALID,100.233,VALID,145.26,VALID,21.6534,VALID,48,VALID,0,
2015-12-12, 08:35:04,VALID,918.787,VALID,0,VALID,100.126,VALID,144.723,VALID,21.6908,VALID,48,VALID,0,
2015-12-12, 08:36:04,VALID,918.792,VALID,0,VALID,99.2264,VALID,148.376,VALID,21.6908,VALID,48,VALID,0,
2015-12-12, 08:37:04,VALID,918.818,VALID,0,VALID,98.5555,VALID,157.401,VALID,21.6713,VALID,48,VALID,0,
2015-12-12, 08:38:04,VALID,918.827,VALID,0,VALID,99.2721,VALID,235.404,VALID,21.6908,VALID,48,VALID,0,
2015-12-12, 08:39:04,VALID,918.862,VALID,0,VALID,100.172,VALID,179.319,VALID,21.7298,VALID,48,VALID,0,
2015-12-12, 08:40:04,VALID,918.83,VALID,0,VALID,99.8134,VALID,199.518,VALID,21.6128,VALID,48,VALID,0,
2015-12-12, 08:41:04,VALID,918.857,VALID,0,VALID,100.324,VALID,216.386,VALID,21.5721,VALID,48,VALID,0,
2015-12-12, 08:42:04,VALID,918.833,VALID,0,VALID,101.064,VALID,234.651,VALID,21.6518,VALID,48,VALID,0,
2015-12-12, 08:43:04,VALID,918.883,VALID,0,VALID,101.056,VALID,435.137,VALID,21.7298,VALID,48,VALID,0,
2015-12-12, 08:44:04,VALID,918.869,VALID,0,VALID,99.4703,VALID,406.342,VALID,21.7688,VALID,48,VALID,0,
2015-12-12, 08:45:04,VALID,918.879,VALID,0,VALID,99.1349,VALID,444.591,VALID,21.9054,VALID,48,VALID,0,
2015-12-12, 08:46:04,VALID,918.893,VALID,0,VALID,99.2493,VALID,475.105,VALID,22.2762,VALID,48,VALID,0,
2015-12-12, 08:47:04,VALID,918.894,VALID,0,VALID,94.6218,VALID,293.959,VALID,22.6257,VALID,48,VALID,0,
2015-12-12, 08:48:04,VALID,918.882,VALID,0,VALID,83.6517,VALID,260.222,VALID,22.725,VALID,48,VALID,0,
2015-12-12, 08:49:04,VALID,918.84,VALID,0,VALID,83.08,VALID,250.016,VALID,22.7818,VALID,48,VALID,0,
2015-12-12, 08:50:04,VALID,918.866,VALID,0,VALID,83.5221,VALID,479.51,VALID,22.938,VALID,48,VALID,0,
2015-12-12, 08:51:04,VALID,918.858,VALID,0,VALID,83.85,VALID,363.796,VALID,23.0959,VALID,85,VALID,1.04102,
2015-12-12, 08:52:04,VALID,918.863,VALID,0,VALID,85.2222,VALID,265.487,VALID,22.9592,VALID,69,VALID,1.08867,
2015-12-12, 08:53:04,VALID,918.871,VALID,0,VALID,83.7432,VALID,437.071,VALID,22.9024,VALID,35,VALID,1.35469,
2015-12-12, 08:54:04,VALID,918.902,VALID,0,VALID,85.9693,VALID,257.214,VALID,22.8634,VALID,46,VALID,1.0125,
2015-12-12, 08:55:04,VALID,918.898,VALID,0,VALID,86.7773,VALID,457.807,VALID,22.7641,VALID,47,VALID,1.48711,
2015-12-12, 08:56:04,VALID,918.886,VALID,0,VALID,91.5877,VALID,464.898,VALID,22.6843,VALID,37,VALID,0.957422,
2015-12-12, 08:57:04,VALID,918.892,VALID,0,VALID,93.4707,VALID,442.335,VALID,22.7055,VALID,37,VALID,0,
2015-12-12, 08:58:04,VALID,918.859,VALID,0,VALID,94.6142,VALID,409.136,VALID,22.8031,VALID,341,VALID,0,
2015-12-12, 08:59:04,VALID,918.871,VALID,0,VALID,96.0703,VALID,383.995,VALID,22.9787,VALID,20,VALID,1.56094,
2015-12-12, 09:00:04,VALID,918.888,VALID,0,VALID,84.8791,VALID,340.911,VALID,23.1154,VALID,66,VALID,0,
2015-12-12, 09:01:04,VALID,918.87,VALID,0,VALID,84.8334,VALID,299.976,VALID,23.1722,VALID,34,VALID,0,
2015-12-12, 09:02:04,VALID,918.865,VALID,0,VALID,84.4903,VALID,266.347,VALID,23.3674,VALID,24,VALID,0,
2015-12-12, 09:03:04,VALID,918.859,VALID,0,VALID,84.6962,VALID,232.073,VALID,23.5235,VALID,38,VALID,0.0945313,
2015-12-12, 09:04:04,VALID,918.855,VALID,0,VALID,85.3518,VALID,219.825,VALID,23.7596,VALID,42,VALID,0,
2015-12-12, 09:05:04,VALID,918.864,VALID,0,VALID,83.2629,VALID,220.684,VALID,23.9725,VALID,33,VALID,0,
2015-12-12, 09:06:04,VALID,918.848,VALID,0,VALID,81.0979,VALID,244.321,VALID,23.9725,VALID,44,VALID,0,
2015-12-12, 09:07:04,VALID,918.846,VALID,0,VALID,81.9898,VALID,233.792,VALID,24.0506,VALID,48,VALID,0,
2015-12-12, 09:08:04,VALID,918.864,VALID,0,VALID,79.6799,VALID,214.023,VALID,24.1482,VALID,27,VALID,0.337109,
2015-12-12, 09:09:04,VALID,918.82,VALID,0,VALID,78.9938,VALID,189.956,VALID,24.0311,VALID,27,VALID,0,
2015-12-12, 09:10:04,VALID,918.812,VALID,0,VALID,78.8109,VALID,185.981,VALID,23.9707,VALID,30,VALID,0,
2015-12-12, 09:11:04,VALID,918.817,VALID,0,VALID,80.0459,VALID,192.535,VALID,24.0683,VALID,30,VALID,0,
2015-12-12, 09:12:04,VALID,918.813,VALID,0,VALID,76.9431,VALID,185.873,VALID,24.2635,VALID,59,VALID,0,
2015-12-12, 09:13:04,VALID,918.858,VALID,0,VALID,78.2467,VALID,166.426,VALID,24.3221,VALID,39,VALID,0,
2015-12-12, 09:14:04,VALID,918.857,VALID,0,VALID,76.966,VALID,176.956,VALID,24.4606,VALID,27,VALID,0.532812,
2015-12-12, 09:15:04,VALID,918.889,VALID,0,VALID,76.5543,VALID,177.923,VALID,24.244,VALID,49,VALID,0.0605469,
2015-12-12, 09:16:04,VALID,918.893,VALID,0,VALID,77.7665,VALID,203.386,VALID,24.0097,VALID,40,VALID,0.457812,
2015-12-12, 09:17:04,VALID,918.893,VALID,0,VALID,79.9086,VALID,212.948,VALID,23.8731,VALID,7,VALID,1.42305,
2015-12-12, 09:18:04,VALID,918.9,VALID,0,VALID,80.2136,VALID,200.808,VALID,23.756,VALID,7,VALID,0.159766,
2015-12-12, 09:19:04,VALID,918.925,VALID,0,VALID,80.7701,VALID,225.841,VALID,23.7364,VALID,346,VALID,0.0195313,
2015-12-12, 09:20:04,VALID,918.927,VALID,0,VALID,81.2732,VALID,232.395,VALID,23.8731,VALID,12,VALID,0.79375,
2015-12-12, 09:21:04,VALID,918.97,VALID,0,VALID,78.9862,VALID,259.148,VALID,23.7773,VALID,341,VALID,0.194141,
2015-12-12, 09:22:04,VALID,918.963,VALID,0,VALID,80.6481,VALID,263.016,VALID,23.6779,VALID,356,VALID,0.164063,
2015-12-12, 09:23:04,VALID,918.957,VALID,0,VALID,81.6697,VALID,228.527,VALID,23.7382,VALID,354,VALID,0,
2015-12-12, 09:24:04,VALID,918.967,VALID,0,VALID,82.1423,VALID,246.577,VALID,23.9316,VALID,354,VALID,0,
2015-12-12, 09:25:04,VALID,918.979,VALID,0,VALID,77.8122,VALID,232.395,VALID,24.1073,VALID,299,VALID,0,
2015-12-12, 09:26:04,VALID,918.97,VALID,0,VALID,78.8566,VALID,231.106,VALID,24.1677,VALID,350,VALID,0.247656,
2015-12-12, 09:27:04,VALID,918.98,VALID,0,VALID,79.1616,VALID,237.552,VALID,24.244,VALID,338,VALID,0,
2015-12-12, 09:28:04,VALID,918.992,VALID,0,VALID,77.3548,VALID,202.956,VALID,24.283,VALID,35,VALID,0.697656,
2015-12-12, 09:29:04,VALID,918.979,VALID,0,VALID,79.9696,VALID,170.724,VALID,24.1659,VALID,58,VALID,0,
2015-12-12, 09:30:04,VALID,918.972,VALID,0,VALID,80.0535,VALID,179.212,VALID,24.2245,VALID,68,VALID,0.40625,
2015-12-12, 09:31:04,VALID,918.961,VALID,0,VALID,79.6647,VALID,544.834,VALID,24.3026,VALID,45,VALID,0,
2015-12-12, 09:32:04,VALID,918.978,VALID,0,VALID,80.488,VALID,577.819,VALID,24.4978,VALID,31,VALID,0,
2015-12-12, 09:33:04,VALID,918.989,VALID,0,VALID,76.0664,VALID,586.951,VALID,24.4978,VALID,236,VALID,0,
2015-12-12, 09:34:04,VALID,918.959,VALID,0,VALID,76.966,VALID,632.076,VALID,24.4392,VALID,276,VALID,0.230078,
2015-12-12, 09:35:04,VALID,918.961,VALID,0,VALID,77.6369,VALID,670.433,VALID,24.4587,VALID,255,VALID,0.0015625,
2015-12-12, 09:36:04,VALID,918.963,VALID,0,VALID,76.2494,VALID,391.945,VALID,24.4002,VALID,234,VALID,0.0949219,
2015-12-12, 09:37:04,VALID,918.988,VALID,0,VALID,76.1351,VALID,562.669,VALID,24.4392,VALID,217,VALID,0,
2015-12-12, 09:38:04,VALID,918.982,VALID,0,VALID,75.7081,VALID,741.774,VALID,24.5545,VALID,183,VALID,0,
2015-12-12, 09:39:04,VALID,918.954,VALID,0,VALID,75.8301,VALID,766.163,VALID,24.8492,VALID,183,VALID,0,
2015-12-12, 09:40:04,VALID,919.012,VALID,0,VALID,76.0359,VALID,549.776,VALID,25.1598,VALID,263,VALID,0,
2015-12-12, 09:41:04,VALID,919.014,VALID,0,VALID,74.4274,VALID,417.624,VALID,24.9078,VALID,245,VALID,0.194141,
2015-12-12, 09:42:04,VALID,919.038,VALID,0,VALID,74.6714,VALID,389.044,VALID,24.6149,VALID,245,VALID,0,
2015-12-12, 09:43:04,VALID,919.041,VALID,0,VALID,76.6535,VALID,339.084,VALID,24.4392,VALID,277,VALID,0,
2015-12-12, 09:44:04,VALID,919.04,VALID,0,VALID,77.2023,VALID,336.935,VALID,24.244,VALID,273,VALID,0,
2015-12-12, 09:45:04,VALID,919.064,VALID,0,VALID,77.3624,VALID,517.329,VALID,24.1073,VALID,282,VALID,0,
2015-12-12, 09:46:04,VALID,919.071,VALID,0,VALID,78.0104,VALID,757.675,VALID,24.1269,VALID,300,VALID,0,
2015-12-12, 09:47:04,VALID,919.056,VALID,0,VALID,77.8275,VALID,745.319,VALID,24.2068,VALID,296,VALID,0,
2015-12-12, 09:48:04,VALID,919.038,VALID,0,VALID,77.3319,VALID,674.623,VALID,24.4002,VALID,296,VALID,0,
2015-12-12, 09:49:04,VALID,919.046,VALID,0,VALID,77.1413,VALID,707.715,VALID,24.4587,VALID,276,VALID,0,
2015-12-12, 09:50:04,VALID,919.033,VALID,0,VALID,76.1579,VALID,681.392,VALID,24.6131,VALID,267,VALID,0,
2015-12-12, 09:51:04,VALID,919.009,VALID,0,VALID,74.8162,VALID,659.904,VALID,24.7321,VALID,297,VALID,0,
2015-12-12, 09:52:04,VALID,919.06,VALID,0,VALID,75.9597,VALID,654.639,VALID,24.7907,VALID,268,VALID,0,
2015-12-12, 09:53:04,VALID,919.041,VALID,0,VALID,74.9153,VALID,650.341,VALID,24.8492,VALID,297,VALID,0,
2015-12-12, 09:54:04,VALID,919.027,VALID,0,VALID,75.5328,VALID,649.589,VALID,24.5935,VALID,297,VALID,0,
2015-12-12, 09:55:04,VALID,919.022,VALID,0,VALID,75.4566,VALID,649.911,VALID,24.4587,VALID,281,VALID,0,
2015-12-12, 09:56:04,VALID,919.041,VALID,0,VALID,77.1109,VALID,638.415,VALID,24.4178,VALID,277,VALID,0.000390625,
2015-12-12, 09:57:04,VALID,919.012,VALID,0,VALID,75.4413,VALID,649.589,VALID,24.5155,VALID,322,VALID,0,
2015-12-12, 09:58:04,VALID,918.988,VALID,0,VALID,74.7857,VALID,652.92,VALID,24.6326,VALID,322,VALID,0,
2015-12-12, 09:59:04,VALID,918.971,VALID,0,VALID,73.1086,VALID,662.912,VALID,24.7888,VALID,272,VALID,0,
2015-12-12, 10:00:04,VALID,918.954,VALID,0,VALID,72.7808,VALID,664.094,VALID,24.8278,VALID,243,VALID,0,
2015-12-12, 10:01:04,VALID,918.938,VALID,0,VALID,73.8328,VALID,662.59,VALID,25.0231,VALID,283,VALID,0,
2015-12-12, 10:02:04,VALID,918.971,VALID,0,VALID,73.2077,VALID,668.391,VALID,25.2965,VALID,284,VALID,0,
2015-12-12, 10:03:04,VALID,918.952,VALID,0,VALID,68.7861,VALID,664.416,VALID,25.4917,VALID,256,VALID,0.134375,
2015-12-12, 10:04:04,VALID,918.971,VALID,0,VALID,72.8189,VALID,667.854,VALID,25.4527,VALID,315,VALID,0.000390625,
2015-12-12, 10:05:04,VALID,918.922,VALID,0,VALID,69.8686,VALID,668.391,VALID,25.4917,VALID,7,VALID,0.680859,
2015-12-12, 10:06:04,VALID,918.949,VALID,0,VALID,69.6552,VALID,669.573,VALID,25.4898,VALID,356,VALID,0,
2015-12-12, 10:07:04,VALID,918.915,VALID,0,VALID,69.6018,VALID,671.077,VALID,25.6675,VALID,356,VALID,0,
2015-12-12, 10:08:04,VALID,918.93,VALID,0,VALID,68.9614,VALID,672.904,VALID,25.9409,VALID,356,VALID,0,
2015-12-12, 10:09:04,VALID,918.95,VALID,0,VALID,69.7238,VALID,663.234,VALID,26.4097,VALID,351,VALID,0,
2015-12-12, 10:10:04,VALID,918.939,VALID,0,VALID,65.5538,VALID,668.499,VALID,26.3686,VALID,299,VALID,0.165234,
2015-12-12, 10:11:04,VALID,918.914,VALID,0,VALID,68.1915,VALID,670.11,VALID,26.0776,VALID,291,VALID,0.390234,
2015-12-12, 10:12:04,VALID,918.904,VALID,0,VALID,69.4188,VALID,681.499,VALID,25.7847,VALID,295,VALID,0.115234,
2015-12-12, 10:13:04,VALID,918.886,VALID,0,VALID,70.8978,VALID,682.144,VALID,25.6675,VALID,295,VALID,0.180469,
2015-12-12, 10:14:04,VALID,918.887,VALID,0,VALID,69.4036,VALID,450.178,VALID,25.687,VALID,305,VALID,0,
2015-12-12, 10:15:04,VALID,918.874,VALID,0,VALID,69.2969,VALID,710.938,VALID,25.687,VALID,221,VALID,0,
2015-12-12, 10:16:04,VALID,918.878,VALID,0,VALID,69.4493,VALID,716.095,VALID,25.7847,VALID,287,VALID,0.187891,
2015-12-12, 10:17:04,VALID,918.851,VALID,0,VALID,72.1861,VALID,729.096,VALID,25.8804,VALID,307,VALID,0.00195313,
2015-12-12, 10:18:04,VALID,918.847,VALID,0,VALID,69.5865,VALID,757.675,VALID,26.0972,VALID,13,VALID,0,
2015-12-12, 10:19:04,VALID,918.841,VALID,0,VALID,67.1318,VALID,735.22,VALID,26.2124,VALID,344,VALID,0.713672,
2015-12-12, 10:20:04,VALID,918.79,VALID,0,VALID,67.8332,VALID,724.905,VALID,26.1538,VALID,28,VALID,0.284375,
2015-12-12, 10:21:04,VALID,918.829,VALID,0,VALID,67.2919,VALID,720.285,VALID,26.0171,VALID,42,VALID,0,
2015-12-12, 10:22:04,VALID,918.814,VALID,0,VALID,69.1139,VALID,651.523,VALID,26.0366,VALID,13,VALID,0.141797,
2015-12-12, 10:23:04,VALID,918.814,VALID,0,VALID,68.9157,VALID,719.104,VALID,26.1733,VALID,333,VALID,0,
2015-12-12, 10:24:04,VALID,918.828,VALID,0,VALID,68.3134,VALID,730.6,VALID,26.1538,VALID,293,VALID,0,
2015-12-12, 10:25:04,VALID,918.822,VALID,0,VALID,67.0784,VALID,740.377,VALID,26.1928,VALID,299,VALID,0.219922,
2015-12-12, 10:26:04,VALID,918.822,VALID,0,VALID,69.0224,VALID,742.203,VALID,26.1147,VALID,323,VALID,0.000390625,
2015-12-12, 10:27:04,VALID,918.866,VALID,0,VALID,66.4305,VALID,746.823,VALID,26.0972,VALID,282,VALID,0,
2015-12-12, 10:28:04,VALID,918.837,VALID,0,VALID,66.743,VALID,745.104,VALID,26.1948,VALID,282,VALID,0,
2015-12-12, 10:29:04,VALID,918.848,VALID,0,VALID,67.1166,VALID,759.931,VALID,26.0972,VALID,261,VALID,0.0417969,
2015-12-12, 10:30:04,VALID,918.861,VALID,0,VALID,66.1103,VALID,766.593,VALID,26.0171,VALID,251,VALID,0.00234375,
2015-12-12, 10:31:04,VALID,918.845,VALID,0,VALID,67.3681,VALID,767.13,VALID,26.1362,VALID,272,VALID,0.398047,
2015-12-12, 10:32:04,VALID,918.835,VALID,0,VALID,67.5663,VALID,757.245,VALID,26.2144,VALID,240,VALID,0,
2015-12-12, 10:33:04,VALID,918.823,VALID,0,VALID,66.6591,VALID,754.989,VALID,26.312,VALID,249,VALID,0,
2015-12-12, 10:34:04,VALID,918.828,VALID,0,VALID,66.3085,VALID,756.386,VALID,26.273,VALID,229,VALID,0.369531,
2015-12-12, 10:35:04,VALID,918.824,VALID,0,VALID,69.152,VALID,770.031,VALID,26.3316,VALID,261,VALID,0,
2015-12-12, 10:36:04,VALID,918.815,VALID,0,VALID,66.6363,VALID,777.122,VALID,26.1928,VALID,272,VALID,0.23125,
2015-12-12, 10:37:04,VALID,918.817,VALID,0,VALID,67.4139,VALID,787.544,VALID,26.1147,VALID,269,VALID,0,
2015-12-12, 10:38:04,VALID,918.776,VALID,0,VALID,66.0264,VALID,790.445,VALID,26.1733,VALID,296,VALID,0,
2015-12-12, 10:39:04,VALID,918.781,VALID,0,VALID,67.978,VALID,161.806,VALID,26.2514,VALID,340,VALID,0.271094,
2015-12-12, 10:40:04,VALID,918.744,VALID,0,VALID,66.6287,VALID,811.718,VALID,26.4488,VALID,348,VALID,0.0289063,
2015-12-12, 10:41:04,VALID,918.742,VALID,0,VALID,65.5156,VALID,835.892,VALID,26.7007,VALID,286,VALID,0,
2015-12-12, 10:42:04,VALID,918.717,VALID,0,VALID,65.5538,VALID,857.38,VALID,26.7788,VALID,283,VALID,0,
2015-12-12, 10:43:04,VALID,918.752,VALID,0,VALID,66.3313,VALID,405.913,VALID,26.7593,VALID,277,VALID,0,
2015-12-12, 10:44:04,VALID,918.731,VALID,0,VALID,66.804,VALID,454.154,VALID,26.6246,VALID,292,VALID,0,
2015-12-12, 10:45:04,VALID,918.706,VALID,0,VALID,67.0403,VALID,744.567,VALID,26.5054,VALID,291,VALID,0,
2015-12-12, 10:46:04,VALID,918.671,VALID,0,VALID,65.2412,VALID,857.273,VALID,26.603,VALID,228,VALID,0,
2015-12-12, 10:47:04,VALID,918.665,VALID,0,VALID,66.987,VALID,855.876,VALID,26.8179,VALID,225,VALID,0,
2015-12-12, 10:48:04,VALID,918.67,VALID,0,VALID,65.1192,VALID,810.858,VALID,26.9567,VALID,290,VALID,0.108203,
2015-12-12, 10:49:04,VALID,918.612,VALID,0,VALID,65.5156,VALID,799.147,VALID,26.9351,VALID,296,VALID,0.217969,
2015-12-12, 10:50:04,VALID,918.581,VALID,0,VALID,66.4838,VALID,791.304,VALID,26.9156,VALID,337,VALID,0,
2015-12-12, 10:51:04,VALID,918.616,VALID,0,VALID,65.7443,VALID,793.775,VALID,27.1911,VALID,243,VALID,0,
2015-12-12, 10:52:04,VALID,918.548,VALID,0,VALID,64.4331,VALID,796.246,VALID,27.4996,VALID,232,VALID,0,
2015-12-12, 10:53:04,VALID,918.55,VALID,0,VALID,64.0443,VALID,794.527,VALID,27.8339,VALID,240,VALID,0,
2015-12-12, 10:54:04,VALID,918.536,VALID,0,VALID,63.2134,VALID,785.18,VALID,27.658,VALID,250,VALID,0.635547,
2015-12-12, 10:55:04,VALID,918.53,VALID,0,VALID,62.6492,VALID,767.667,VALID,27.48,VALID,247,VALID,0,
2015-12-12, 10:56:04,VALID,918.519,VALID,0,VALID,62.2071,VALID,800.114,VALID,27.5212,VALID,349,VALID,0,
2015-12-12, 10:57:04,VALID,918.497,VALID,0,VALID,62.6035,VALID,824.074,VALID,27.4235,VALID,315,VALID,0,
2015-12-12, 10:58:04,VALID,918.476,VALID,0,VALID,63.9528,VALID,842.554,VALID,27.4626,VALID,303,VALID,0,
2015-12-12, 10:59:04,VALID,918.481,VALID,0,VALID,61.399,VALID,858.347,VALID,27.5994,VALID,209,VALID,0,
2015-12-12, 11:00:04,VALID,918.488,VALID,0,VALID,61.4066,VALID,863.719,VALID,27.6775,VALID,250,VALID,0.966797,
2015-12-12, 11:01:04,VALID,918.469,VALID,0,VALID,62.5806,VALID,872.745,VALID,27.48,VALID,260,VALID,0.6375,
2015-12-12, 11:02:04,VALID,918.518,VALID,0,VALID,60.7358,VALID,345.961,VALID,27.3649,VALID,265,VALID,1.4082,
2015-12-12, 11:03:04,VALID,918.511,VALID,0,VALID,64.2349,VALID,907.555,VALID,27.1109,VALID,248,VALID,0.311328,
2015-12-12, 11:04:04,VALID,918.479,VALID,0,VALID,62.2071,VALID,666.028,VALID,26.8549,VALID,246,VALID,0.0921875,
2015-12-12, 11:05:04,VALID,918.464,VALID,0,VALID,64.3264,VALID,931.407,VALID,26.8549,VALID,233,VALID,0.924609,
2015-12-12, 11:06:04,VALID,918.473,VALID,0,VALID,65.9426,VALID,930.44,VALID,27.0914,VALID,345,VALID,0,
2015-12-12, 11:07:04,VALID,918.441,VALID,0,VALID,62.6721,VALID,529.792,VALID,27.2672,VALID,313,VALID,0.0914062,
2015-12-12, 11:08:04,VALID,918.42,VALID,0,VALID,65.6376,VALID,661.73,VALID,26.9546,VALID,255,VALID,1.16133,
2015-12-12, 11:09:04,VALID,918.399,VALID,0,VALID,65.1421,VALID,860.066,VALID,26.7788,VALID,221,VALID,0.490625,
2015-12-12, 11:10:04,VALID,918.408,VALID,0,VALID,65.5004,VALID,345.638,VALID,26.7788,VALID,246,VALID,0.749219,
2015-12-12, 11:11:04,VALID,918.382,VALID,0,VALID,65.7748,VALID,907.77,VALID,26.7202,VALID,263,VALID,0,
2015-12-12, 11:12:04,VALID,918.38,VALID,0,VALID,67.574,VALID,516.577,VALID,26.8179,VALID,263,VALID,0,
2015-12-12, 11:13:04,VALID,918.349,VALID,0,VALID,69.5637,VALID,280.099,VALID,26.8374,VALID,47,VALID,1.80508,
2015-12-12, 11:14:04,VALID,918.336,VALID,0,VALID,68.9995,VALID,562.454,VALID,27.0112,VALID,355,VALID,0.0808594,
2015-12-12, 11:15:04,VALID,918.314,VALID,0,VALID,67.2157,VALID,421.492,VALID,27.2086,VALID,336,VALID,0.332422,
2015-12-12, 11:16:04,VALID,918.333,VALID,0,VALID,67.6807,VALID,337.043,VALID,27.15,VALID,3,VALID,0.0949219,
2015-12-12, 11:17:04,VALID,918.338,VALID,0,VALID,67.1394,VALID,331.778,VALID,27.2672,VALID,313,VALID,0,
2015-12-12, 11:18:04,VALID,918.333,VALID,0,VALID,70.0668,VALID,279.562,VALID,27.3844,VALID,38,VALID,0.132031,
2015-12-12, 11:19:04,VALID,918.347,VALID,0,VALID,66.8345,VALID,271.504,VALID,27.3649,VALID,62,VALID,0.0136719,
2015-12-12, 11:20:04,VALID,918.335,VALID,0,VALID,67.3681,VALID,217.676,VALID,27.2281,VALID,29,VALID,0.0324219,
2015-12-12, 11:21:04,VALID,918.303,VALID,0,VALID,68.5116,VALID,191.89,VALID,27.1109,VALID,29,VALID,0.648828,
2015-12-12, 11:22:04,VALID,918.299,VALID,0,VALID,69.7924,VALID,184.154,VALID,27.0328,VALID,25,VALID,0.916016,
2015-12-12, 11:23:04,VALID,918.31,VALID,0,VALID,70.0897,VALID,196.08,VALID,27.0132,VALID,32,VALID,0.0148437,
2015-12-12, 11:24:04,VALID,918.315,VALID,0,VALID,70.1812,VALID,230.246,VALID,26.9742,VALID,11,VALID,0,
2015-12-12, 11:25:04,VALID,918.257,VALID,0,VALID,68.8471,VALID,252.164,VALID,26.9546,VALID,38,VALID,0.199609,
2015-12-12, 11:26:04,VALID,918.286,VALID,0,VALID,70.6157,VALID,611.877,VALID,26.7202,VALID,26,VALID,1.04102,